パンスターズ彗星

C/2017 T2 ( PanSTARRS )

English version
Home page
Updated on August 1, 2021

---------------------------------------------------------------------

・ プロフィール

発見日 2017年10月2日
発見光度 19.9等
発見者 Pan-STARRS 1 telescope (Haleakala)

・ 写真集

・ 軌道要素

Epoch 2020 Apr. 21.0 TT = JDT 2458960.5
T 2020 May 4.95215 TT                                   Rudenko
q   1.6151770            (2000.0)            P               Q
z  +0.0002129      Peri.   92.99178     -0.50993580     -0.40637373
 +/-0.0000002      Node    64.37782     -0.16274447     -0.81988504
e   0.9996562      Incl.   57.23087     +0.84467729     -0.40329754
From 6758 observations 2017 Sept. 15-2021 Apr. 5, mean residual 1".0.

・ 星図

・ 光度変化

        m1 = -4.5 + 5 logΔ + 20.0 log r          [    ,-820]  (              〜2018年 2月 4日)
        m1 =  5.2 + 5 logΔ +  9.5 log r(t + 15)  [-820,   0]  (2018年 2月 4日〜2020年 5月 4日)
        m1 =  4.7 + 5 logΔ + 12.0 log r(t + 15)  [   0,    ]  (2020年 5月 4日〜              )

---------------------------------------------------------------------

軌道要素はM.P.E.C. 2021-L04に掲載されたものです。
星図はステラナビゲータ Ver.10 (アストロアーツ) で作成したものです。
光度グラフはComet for Windowsで作成したものです。

---------------------------------------------------------------------

Copyright(C) Seiichi Yoshida (comet@aerith.net). All rights reserved.